Regional Weather Roundup
Issued by NWS San Diego, CA

Current Version | Previous Version | Text Only | Print | Product List | Glossary On
Versions: 1 2 3 4 5 6 7 8 9 10 11 12 13 14 15 16 17 18 19 20 21 22 23 24 25 26 27
000
ASUS46 KSGX 162210
RWRSGX

SAN DIEGO HOURLY WEATHER ROUNDUP
NATIONAL WEATHER SERVICE SAN DIEGO CA
300 PM PDT TUE APR 16 2024

NOTE: "FAIR" INDICATES FEW OR NO CLOUDS BELOW 12,000 FEET WITH NO
SIGNIFICANT WEATHER AND/OR OBSTRUCTIONS TO VISIBILITY.

CAZ042-043-060-061-PZZ750-775-162300-

GREATER SAN DIEGO AREA

CITY           SKY/WX    TMP DP  RH WIND       PRES   REMARKS
SAN DIEGO AP   SUNNY     69  54  58 NW13      29.98F
BROWN FIELD    SUNNY     72  51  47 W13       29.96F
MONTGOMERY FLD SUNNY     74  50  42 W8        29.96F
GILLESPIE FLD  SUNNY     79  48  34 W13       29.95F
LEMON GROVE      N/A     75  53  46 W3        29.93F

$$

NORTH SAN DIEGO COUNTY

CITY           SKY/WX    TMP DP  RH WIND       PRES   REMARKS
OCEANSIDE AP   SUNNY     70  56  61 W9        29.96F
OCEANSIDE HBR    N/A     63  57  80 W9        30.02F
VISTA            N/A     74  56  53 W3        29.94F
CARLSBAD       SUNNY     68  53  58 VRB6      29.96F
ENCINITAS        N/A     70  60  70 W8          N/A
LA JOLLA SCRIP   N/A     63  53  70 CALM      29.98F
FALLBROOK      SUNNY     75  54  46 SW8       29.96F
ESCONDIDO        N/A     78  50  37 SW8       29.95F
SAN MARCOS       N/A     76  55  48 NW3       29.94F
RANCHO BERNARD   N/A     74  52  46 CALM      29.94F
POWAY            N/A     80  56  42 SW3       29.97F

$$

EAST SAN DIEGO COUNTY

CITY           SKY/WX    TMP DP  RH WIND       PRES   REMARKS
RAMONA         SUNNY     77  51  40 W14       29.96F
SANTEE           N/A     78  55  44 CALM      29.91F
LA MESA          N/A     76  51  41 NW2       29.90F
EL CAJON         N/A     79  50  36 E13       29.82F
ALPINE           N/A     78  52  40 W5        30.14F
DESCANSO N       N/A     76  38  25 NW3       30.02F

$$

ORANGE COUNTY AND THE LOS ANGELES BASIN

CITY           SKY/WX    TMP DP  RH WIND       PRES   REMARKS
JOHN WAYNE AP  MOSUNNY   72  50  45 SW8       29.98S
LAGUNA BEACH     N/A     70  60  70 N2        29.97F
LAKE FOREST FR   N/A     78  49  35 CALM      29.84F
SANTA ANA        N/A     77  56  47 CALM      29.95S
HUNTINGTON BCH   N/A     71  59  65 W7        29.98S
LOS ALAMITOS   SUNNY     73  53  49 SW10      29.95S
FULLERTON      SUNNY     79  51  37 SW12      29.95F
LONG BEACH     SUNNY     79  50  36 S7        29.97S
L.A. AP        MOSUNNY   68  52  56 W14       30.00S
L.A. DOWNTOWN  SUNNY     75  47  36 W6        29.99R

$$

THE INLAND EMPIRE

CITY           SKY/WX    TMP DP  RH WIND       PRES   REMARKS
CORONA         SUNNY     82  47  29 W10G16    29.96F
UPLAND AP      FAIR      79  36  21 W12       29.99S
CHINO          SUNNY     84  36  18 W10       29.96F
ONTARIO        SUNNY     82  38  20 W9        29.96F
SAN BERNARDINO SUNNY     82  34  17 SW5       29.98R
RIVERSIDE AP   SUNNY     82  42  24 W8        29.95F
MORENO VALLEY    N/A     83  49  31 W1        28.21F
MARCH ARB      SUNNY     81  37  20 NW6       29.97F
HORSETHIEF CYN   N/A     82  42  24 W3        29.94F
PERRIS           N/A     82  35  18 W3        30.00F
LAKE ELSINORE    N/A     84  42  22 W1        29.88F
HEMET AP       FAIR      82  42  24 SW9       29.96F
FRENCH VALLEY  SUNNY     82  27  13 SW5       29.96F
TEMECULA         N/A     81  52  36 SW10      29.92F

$$

SAN BERNARDINO AND RIVERSIDE COUNTY MOUNTAINS

CITY           SKY/WX    TMP DP  RH WIND       PRES   REMARKS
BIG BEAR AP    SUNNY     59  21  23 E9        30.19F
BIG BEAR LAKE    N/A     64  34  33 NW3       30.09F
WRIGHTWOOD       N/A     62  29  28 CALM      29.93F
ANGELUS OAKS     N/A     63  37  39 CALM      29.99F
IDYLLWILD        N/A     70  32  24 CALM      29.97F

$$

SOUTHERN DESERT INCLUDING THE COACHELLA VALLEY

CITY           SKY/WX    TMP DP  RH WIND       PRES   REMARKS
PALM SPRINGS   SUNNY     93  25   8 SE9       29.92F
THOUSAND PALMS   N/A     91  31  12 SE7       29.86F
THERMAL        SUNNY     92  32  12 S8        29.88F
BORREGO AP     SUNNY     86  18   8 SE9       29.93F
OCOTILLO WELLS   N/A     90  26  10 SE10      29.88F
CANEBRAKE        N/A     82  20  10 CALM      29.90F
BLYTHE         SUNNY     87  26  11 CALM      29.92F
IMPERIAL AP    SUNNY     85  30  13 VRB3      29.92F
EL CENTRO NAS  SUNNY     89  31  12 VRB3      29.93F

$$

UPPER DESERT

CITY           SKY/WX    TMP DP  RH WIND       PRES   REMARKS
VICTORVILLE AP SUNNY     75  30  19 VRB7      30.06F
HESPERIA         N/A     75  37  25 NW1       29.83F
APPLE VALLEY     N/A     79  40  24 CALM      30.02F
PALMDALE       SUNNY     78  33  19 VRB3      30.04F
LANCASTER      SUNNY     76  30  18 VRB5      30.04F
EDWARDS AFB    SUNNY     77  29  17 N3        30.01F
GRAY BUTTE AP  SUNNY     75  28  18 VRB3      30.00F
DAGGETT        SUNNY     80  30  16 NE6       30.00F
29 PALMS N     SUNNY     81  25  12 VRB3      30.05F
29 PALMS JTNP    N/A     82  24  12 CALM      29.90F
NEEDLES        SUNNY     85  26  11 CALM      29.93F

$$

REGIONAL REPORTS

CITY           SKY/WX    TMP DP  RH WIND       PRES   REMARKS
SANTA BARBARA  SUNNY     67  51  56 W14       30.01F
SANDBERG       SUNNY     69  37  30 N7        30.13F
LAS VEGAS NV   MOSUNNY   78  25  14 S7        29.97F
PHOENIX AZ     MOSUNNY   87  25  10 N3        29.89F
TIJUANA        SUNNY     72  54  53 W6        29.99F

$$

OFFSHORE ISLANDS

CITY           SKY/WX    TMP DP  RH WIND       PRES   REMARKS
CATALINA ARPT  SUNNY     69  45  41 W10       30.04R
SAN CLEMENTE I MOSUNNY   66  55  67 SW10      30.02S
SAN NICOLAS IS MOSUNNY   69  55  60 VRB5      30.03R

$$

MARINE AND OFFSHORE BUOY REPORTS

STATION/POSITION SKY/WX   TEMP    WIND        PRES    VSBY  SWELL
                          AIR SEA DIR/SP/G                  HT/PER/DIR
                          (F)     (DEG/KT/KT) (MB)    (MI)  (FT/S/D)
TANNER BANKS               58 59  300/ 12/ 16 1017.2R         7/310/ 9
S CLEMENTE BASIN           60 61  260/  6/  8 1014.6F         5/230/17
SAN NICOLAS IS.            58 57                N/A           3/300/13
SO. S. ROSA ISLA           56 57  320/ 14/ 17 1016.2F         5/310/ 8
W. S. BARBARA CH           56 56  320/ 14/ 17 1016.3F         7/310/ 9
M. S. BARBARA CH           58 57  270/  8/ 10 1015.8F         3/270/ 8
S. MONICA BASIN            58 61  280/ 10/ 12 1017.2R         2/260/ 7
S PEDRO CHANNEL               60                N/A           2/150/18
OCEANSIDE OFFSHR              61                N/A           2/190/18
TORREY PINES OTR              62                N/A           2/180/20
SAN DIEGO BAY                 64              1014.9
IMPERIAL BEACH                62                N/A           2/230/18
POINT LOMA SOUTH                                N/A           3/180/20

$$




USA.gov is the U.S. government's official web portal to all federal, state and local government web resources and services.